When you browse on this site, cookies collect data to enhance your experience and personalize the content and advertising you see.
Visit our Privacy Policy to learn more. By continuing to use the site, you agree to this use of cookies and data.
  • In Latvia
  • List of Countries
  • For 7 days
  • Water Temperature
  • Satellite Maps
  • Weather Map
  • Weather Widgets
  • user-avatar
    Login

    Hourly Weather Vatican

    Today, 16 December, Sunday

    Time Temperature Precipitation Wind Pressure Humidity
    00:00 +5°C° 0 mm 5 mps 762 mmHg 66%
    01:00 +3°C° 0 mm 6 mps 762 mmHg 64%
    02:00 +3°C° 0 mm 5 mps 762 mmHg 63%
    03:00 +4°C° 0 mm 4 mps 763 mmHg 62%
    04:00 +4°C° 0 mm 3 mps 763 mmHg 61%
    05:00 +4°C° 0 mm 3 mps 763 mmHg 61%
    06:00 +4°C° 0 mm 3 mps 763 mmHg 60%
    07:00 +5°C° 0 mm 2 mps 763 mmHg 59%
    08:00 +6°C° 0 mm 2 mps 763 mmHg 56%
    09:00 +7°C° 0 mm 2 mps 763 mmHg 54%
    10:00 +9°C° 0 mm 1 mps 763 mmHg 51%
    11:00 +10°C° 0 mm 1 mps 763 mmHg 49%
    12:00 +11°C° 0 mm 1 mps 763 mmHg 46%
    13:00 +12°C° 0 mm 1 mps 763 mmHg 44%
    14:00 +10°C° 0 mm 2 mps 762 mmHg 47%
    15:00 +10°C° 0 mm 2 mps 762 mmHg 50%
    16:00 +10°C° 0 mm 3 mps 762 mmHg 53%
    17:00 +10°C° 0.1 mm 3 mps 762 mmHg 57%
    18:00 +10°C° 0.1 mm 4 mps 762 mmHg 60%
    19:00 +8°C° 0.1 mm 4 mps 761 mmHg 64%
    20:00 +8°C° 0.5 mm 6 mps 761 mmHg 67%
    21:00 +8°C° 0.5 mm 7 mps 760 mmHg 71%
    22:00 +7°C° 0.5 mm 8 mps 760 mmHg 74%
    23:00 +7°C° 1.8 mm 8 mps 759 mmHg 77%

    Tomorrow, 17 December, Monday

    Time Temperature Precipitation Wind Pressure Humidity
    00:00 +8°C° 1.8 mm 7 mps 759 mmHg 80%
    01:00 +8°C° 1.8 mm 7 mps 758 mmHg 83%
    02:00 +9°C° 0.8 mm 7 mps 757 mmHg 84%
    03:00 +9°C° 0.8 mm 7 mps 757 mmHg 85%
    04:00 +9°C° 0.8 mm 6 mps 756 mmHg 86%
    05:00 +10°C° 0.5 mm 7 mps 756 mmHg 86%
    06:00 +10°C° 0.5 mm 8 mps 756 mmHg 87%
    07:00 +11°C° 0.5 mm 8 mps 756 mmHg 88%
    08:00 +11°C° 0.2 mm 8 mps 757 mmHg 87%
    09:00 +11°C° 0.2 mm 8 mps 757 mmHg 86%
    10:00 +10°C° 0.2 mm 8 mps 757 mmHg 85%
    11:00 +10°C° 0 mm 9 mps 757 mmHg 83%
    12:00 +8°C° 0 mm 9 mps 758 mmHg 81%
    13:00 +8°C° 0 mm 9 mps 758 mmHg 80%
    14:00 +8°C° 0 mm 10 mps 758 mmHg 79%
    15:00 +8°C° 0 mm 10 mps 759 mmHg 78%
    16:00 +8°C° 0 mm 11 mps 759 mmHg 76%
    17:00 +7°C° 0 mm 11 mps 760 mmHg 76%
    18:00 +7°C° 0 mm 11 mps 761 mmHg 75%
    19:00 +7°C° 0 mm 11 mps 761 mmHg 75%
    20:00 +7°C° 0 mm 11 mps 762 mmHg 74%
    21:00 +7°C° 0 mm 10 mps 763 mmHg 73%
    22:00 +7°C° 0 mm 10 mps 764 mmHg 73%
    23:00 +6°C° 0 mm 10 mps 764 mmHg 72%

    Day after tomorrow, 18 December, Tuesday

    Time Temperature Precipitation Wind Pressure Humidity
    00:00 +6°C° 0 mm 11 mps 765 mmHg 71%
    01:00 +6°C° 0 mm 11 mps 765 mmHg 70%
    02:00 +6°C° 0 mm 10 mps 765 mmHg 71%
    03:00 +5°C° 0 mm 10 mps 766 mmHg 71%
    04:00 +5°C° 0 mm 9 mps 766 mmHg 71%
    05:00 +5°C° 0 mm 9 mps 766 mmHg 72%
    06:00 +5°C° 0 mm 8 mps 767 mmHg 72%
    07:00 +5°C° 0 mm 8 mps 767 mmHg 73%
    08:00 +5°C° 0 mm 8 mps 767 mmHg 71%
    09:00 +6°C° 0 mm 7 mps 768 mmHg 70%
    10:00 +8°C° 0 mm 7 mps 768 mmHg 68%
    11:00 +9°C° 0 mm 6 mps 768 mmHg 64%
    12:00 +10°C° 0 mm 6 mps 768 mmHg 59%
    13:00 +12°C° 0 mm 5 mps 768 mmHg 55%
    14:00 +10°C° 0 mm 5 mps 768 mmHg 57%
    15:00 +10°C° 0 mm 5 mps 768 mmHg 58%
    16:00 +11°C° 0 mm 4 mps 768 mmHg 60%
    17:00 +10°C° 0 mm 4 mps 768 mmHg 62%
    18:00 +8°C° 0 mm 4 mps 768 mmHg 64%
    19:00 +8°C° 0 mm 3 mps 768 mmHg 67%
    20:00 +8°C° 0 mm 3 mps 768 mmHg 65%
    21:00 +7°C° 0 mm 2 mps 768 mmHg 63%
    22:00 +7°C° 0 mm 2 mps 768 mmHg 62%
    23:00 +7°C° 0 mm 2 mps 768 mmHg 60%

    19 December, Wednesday

    Time Temperature Precipitation Wind Pressure Humidity
    00:00 +7°C° 0 mm 2 mps 768 mmHg 57%
    01:00 +7°C° 0 mm 2 mps 767 mmHg 55%
    02:00 +7°C° 0 mm 2 mps 767 mmHg 55%
    03:00 +7°C° 0 mm 2 mps 767 mmHg 54%
    04:00 +6°C° 0 mm 2 mps 767 mmHg 53%
    05:00 +7°C° 0 mm 2 mps 767 mmHg 53%
    06:00 +7°C° 0 mm 2 mps 767 mmHg 54%
    07:00 +7°C° 0 mm 2 mps 767 mmHg 54%
    08:00 +8°C° 0 mm 2 mps 767 mmHg 54%
    09:00 +9°C° 0 mm 3 mps 767 mmHg 54%
    10:00 +10°C° 0 mm 3 mps 767 mmHg 54%
    11:00 +11°C° 0 mm 3 mps 767 mmHg 54%
    12:00 +12°C° 0 mm 3 mps 766 mmHg 54%
    13:00 +13°C° 0 mm 3 mps 766 mmHg 54%
    14:00 +12°C° 0 mm 3 mps 766 mmHg 58%
    15:00 +12°C° 0 mm 4 mps 765 mmHg 62%
    16:00 +11°C° 0 mm 4 mps 765 mmHg 66%
    17:00 +11°C° 0 mm 4 mps 765 mmHg 67%
    18:00 +10°C° 0 mm 4 mps 765 mmHg 69%
    19:00 +10°C° 0 mm 4 mps 765 mmHg 71%
    20:00 +9°C° 0 mm 5 mps 765 mmHg 71%
    21:00 +9°C° 0 mm 5 mps 765 mmHg 70%
    22:00 +9°C° 0 mm 6 mps 765 mmHg 70%
    23:00 +9°C° 0 mm 6 mps 764 mmHg 71%

    20 December, Thursday

    Time Temperature Precipitation Wind Pressure Humidity
    00:00 +9°C° 0 mm 6 mps 764 mmHg 72%
    01:00 +9°C° 0 mm 7 mps 763 mmHg 73%
    02:00 +9°C° 0.2 mm 7 mps 763 mmHg 75%
    03:00 +10°C° 0.2 mm 7 mps 763 mmHg 77%
    04:00 +10°C° 0.2 mm 7 mps 762 mmHg 79%
    05:00 +10°C° 1.1 mm 7 mps 762 mmHg 81%
    06:00 +10°C° 1.1 mm 7 mps 761 mmHg 83%
    07:00 +10°C° 1.1 mm 6 mps 761 mmHg 85%
    08:00 +10°C° 1.9 mm 6 mps 761 mmHg 85%
    09:00 +10°C° 1.9 mm 7 mps 761 mmHg 85%
    10:00 +10°C° 1.9 mm 7 mps 761 mmHg 86%
    11:00 +11°C° 0.3 mm 7 mps 761 mmHg 81%
    12:00 +13°C° 0.3 mm 6 mps 761 mmHg 77%
    13:00 +14°C° 0.3 mm 6 mps 761 mmHg 73%
    14:00 +13°C° 0.2 mm 6 mps 761 mmHg 73%
    15:00 +13°C° 0.2 mm 6 mps 761 mmHg 74%
    16:00 +13°C° 0.2 mm 5 mps 761 mmHg 75%
    17:00 +12°C° 0.3 mm 5 mps 762 mmHg 77%
    18:00 +10°C° 0.3 mm 5 mps 762 mmHg 80%
    19:00 +9°C° 0.3 mm 5 mps 763 mmHg 82%
    20:00 +9°C° 0.2 mm 6 mps 763 mmHg 83%
    21:00 +9°C° 0.2 mm 6 mps 763 mmHg 84%
    22:00 +9°C° 0.2 mm 6 mps 764 mmHg 84%
    23:00 +9°C° 0 mm 6 mps 764 mmHg 85%

    21 December, Friday

    Time Temperature Precipitation Wind Pressure Humidity
    00:00 +9°C° 0 mm 6 mps 764 mmHg 85%
    01:00 +8°C° 0 mm 6 mps 765 mmHg 86%
    02:00 +8°C° 0 mm 6 mps 765 mmHg 85%
    03:00 +8°C° 0 mm 6 mps 765 mmHg 84%
    04:00 +8°C° 0 mm 6 mps 765 mmHg 83%
    05:00 +7°C° 0 mm 6 mps 766 mmHg 83%
    06:00 +7°C° 0 mm 6 mps 766 mmHg 83%
    07:00 +7°C° 0 mm 5 mps 766 mmHg 83%
    08:00 +7°C° 0 mm 5 mps 767 mmHg 80%
    09:00 +8°C° 0 mm 5 mps 767 mmHg 78%
    10:00 +10°C° 0 mm 4 mps 767 mmHg 75%
    11:00 +11°C° 0 mm 4 mps 767 mmHg 71%
    12:00 +12°C° 0 mm 4 mps 767 mmHg 68%
    13:00 +13°C° 0 mm 4 mps 767 mmHg 65%
    14:00 +12°C° 0 mm 4 mps 767 mmHg 66%
    15:00 +12°C° 0 mm 4 mps 767 mmHg 68%
    16:00 +12°C° 0 mm 3 mps 767 mmHg 70%
    17:00 +11°C° 0 mm 3 mps 767 mmHg 72%
    18:00 +12°C° 0 mm 2 mps 768 mmHg 74%
    19:00 +10°C° 0 mm 2 mps 768 mmHg 77%
    20:00 +10°C° 0 mm 2 mps 768 mmHg 77%
    21:00 +10°C° 0 mm 2 mps 768 mmHg 77%
    22:00 +10°C° 0 mm 2 mps 768 mmHg 77%
    23:00 +9°C° 0 mm 2 mps 768 mmHg 76%
    Show more